Year,Month,Day,Hour,Minute,Value (Times are PST for temperature in C)
2010,05,08,00,00,8.50
2010,05,08,00,01,8.50
2010,05,08,00,02,8.40
2010,05,08,00,03,8.40
2010,05,08,00,04,8.40
2010,05,08,00,05,8.40
2010,05,08,00,06,8.30
2010,05,08,00,07,8.30
2010,05,08,00,08,8.30
2010,05,08,00,09,8.30
2010,05,08,00,10,8.20
2010,05,08,00,11,8.20
2010,05,08,00,12,8.20
2010,05,08,00,13,8.20
2010,05,08,00,14,8.20
2010,05,08,00,15,8.20
2010,05,08,00,16,8.20
2010,05,08,00,17,8.20
2010,05,08,00,18,8.20
2010,05,08,00,19,8.20
2010,05,08,00,20,8.20
2010,05,08,00,21,8.10
2010,05,08,00,22,8.10
2010,05,08,00,23,8.10
2010,05,08,00,24,8.10
2010,05,08,00,25,8.00
2010,05,08,00,26,8.00
2010,05,08,00,27,8.00
2010,05,08,00,28,8.00
2010,05,08,00,29,7.90
2010,05,08,00,30,7.90
2010,05,08,00,31,7.90
2010,05,08,00,32,7.90
2010,05,08,00,33,7.80
2010,05,08,00,34,7.80
2010,05,08,00,35,7.80
2010,05,08,00,36,7.80
2010,05,08,00,37,7.80
2010,05,08,00,38,7.80
2010,05,08,00,39,7.70
2010,05,08,00,40,7.70
2010,05,08,00,41,7.70
2010,05,08,00,42,7.60
2010,05,08,00,43,7.60
2010,05,08,00,44,7.60
2010,05,08,00,45,7.60
2010,05,08,00,46,7.60
2010,05,08,00,47,7.50
2010,05,08,00,48,7.50
2010,05,08,00,49,7.50
2010,05,08,00,50,7.50
2010,05,08,00,51,7.40
2010,05,08,00,52,7.40
2010,05,08,00,53,7.40
2010,05,08,00,54,7.40
2010,05,08,00,55,7.30
2010,05,08,00,56,7.30
2010,05,08,00,57,7.30
2010,05,08,00,58,7.30
2010,05,08,00,59,7.30
2010,05,08,01,00,7.30
2010,05,08,01,01,7.30
2010,05,08,01,02,7.30
2010,05,08,01,03,7.30
2010,05,08,01,04,7.30
2010,05,08,01,05,7.30
2010,05,08,01,06,7.30
2010,05,08,01,07,7.30
2010,05,08,01,08,7.30
2010,05,08,01,09,7.30
2010,05,08,01,10,7.30
2010,05,08,01,11,7.20
2010,05,08,01,12,7.20
2010,05,08,01,13,7.20
2010,05,08,01,14,7.20
2010,05,08,01,15,7.20
2010,05,08,01,16,7.20
2010,05,08,01,17,7.20
2010,05,08,01,18,7.20
2010,05,08,01,19,7.10
2010,05,08,01,20,7.10
2010,05,08,01,21,7.10
2010,05,08,01,22,7.00
2010,05,08,01,23,7.00
2010,05,08,01,24,7.00
2010,05,08,01,25,7.00
2010,05,08,01,26,6.90
2010,05,08,01,27,6.90
2010,05,08,01,28,6.90
2010,05,08,01,29,6.80
2010,05,08,01,30,6.80
2010,05,08,01,31,6.80
2010,05,08,01,32,6.80
2010,05,08,01,33,6.80
2010,05,08,01,34,6.80
2010,05,08,01,35,6.80
2010,05,08,01,36,6.80
2010,05,08,01,37,6.80
2010,05,08,01,38,6.80
2010,05,08,01,39,6.80
2010,05,08,01,40,6.80
2010,05,08,01,41,6.80
2010,05,08,01,42,6.80
2010,05,08,01,43,6.80
2010,05,08,01,44,6.70
2010,05,08,01,45,6.70
2010,05,08,01,46,6.70
2010,05,08,01,47,6.70
2010,05,08,01,48,6.70
2010,05,08,01,49,6.70
2010,05,08,01,50,6.70
2010,05,08,01,51,6.70
2010,05,08,01,52,6.70
2010,05,08,01,53,6.70
2010,05,08,01,54,6.70
2010,05,08,01,55,6.70
2010,05,08,01,56,6.70
2010,05,08,01,57,6.70
2010,05,08,01,58,6.60
2010,05,08,01,59,6.60
2010,05,08,02,00,6.60
2010,05,08,02,01,6.60
2010,05,08,02,02,6.60
2010,05,08,02,03,6.60
2010,05,08,02,04,6.60
2010,05,08,02,05,6.60
2010,05,08,02,06,6.60
2010,05,08,02,07,6.60
2010,05,08,02,08,6.60
2010,05,08,02,09,6.50
2010,05,08,02,10,6.40
2010,05,08,02,11,6.40
2010,05,08,02,12,6.40
2010,05,08,02,13,6.40
2010,05,08,02,14,6.40
2010,05,08,02,15,6.40
2010,05,08,02,16,6.40
2010,05,08,02,17,6.40
2010,05,08,02,18,6.30
2010,05,08,02,19,6.30
2010,05,08,02,20,6.30
2010,05,08,02,21,6.30
2010,05,08,02,22,6.30
2010,05,08,02,23,6.30
2010,05,08,02,24,6.30
2010,05,08,02,25,6.30
2010,05,08,02,26,6.30
2010,05,08,02,27,6.30
2010,05,08,02,28,6.30
2010,05,08,02,29,6.20
2010,05,08,02,30,6.20
2010,05,08,02,31,6.20
2010,05,08,02,32,6.20
2010,05,08,02,33,6.20
2010,05,08,02,34,6.20
2010,05,08,02,35,6.20
2010,05,08,02,36,6.10
2010,05,08,02,37,6.10
2010,05,08,02,38,6.10
2010,05,08,02,39,6.10
2010,05,08,02,40,6.10
2010,05,08,02,41,6.00
2010,05,08,02,42,6.00
2010,05,08,02,43,6.00
2010,05,08,02,44,6.00
2010,05,08,02,45,6.00
2010,05,08,02,46,6.00
2010,05,08,02,47,6.00
2010,05,08,02,48,5.90
2010,05,08,02,49,5.90
2010,05,08,02,50,6.00
2010,05,08,02,51,6.00
2010,05,08,02,52,6.00
2010,05,08,02,53,6.00
2010,05,08,02,54,6.00
2010,05,08,02,55,6.00
2010,05,08,02,56,6.00
2010,05,08,02,57,6.00
2010,05,08,02,58,6.00
2010,05,08,02,59,6.00
2010,05,08,03,00,6.00
2010,05,08,03,01,6.00
2010,05,08,03,02,6.00
2010,05,08,03,03,6.00
2010,05,08,03,04,6.00
2010,05,08,03,05,6.00
2010,05,08,03,06,6.00
2010,05,08,03,07,6.00
2010,05,08,03,08,6.00
2010,05,08,03,09,6.10
2010,05,08,03,10,6.10
2010,05,08,03,11,6.10
2010,05,08,03,12,6.00
2010,05,08,03,13,6.00
2010,05,08,03,14,6.00
2010,05,08,03,15,6.00
2010,05,08,03,16,6.00
2010,05,08,03,17,6.00
2010,05,08,03,18,6.00
2010,05,08,03,19,6.00
2010,05,08,03,20,6.00
2010,05,08,03,21,6.00
2010,05,08,03,22,6.10
2010,05,08,03,23,6.10
2010,05,08,03,24,6.10
2010,05,08,03,25,6.10
2010,05,08,03,26,6.20
2010,05,08,03,27,6.20
2010,05,08,03,28,6.20
2010,05,08,03,29,6.20
2010,05,08,03,30,6.20
2010,05,08,03,31,6.20
2010,05,08,03,32,6.10
2010,05,08,03,33,6.10
2010,05,08,03,34,6.10
2010,05,08,03,35,6.10
2010,05,08,03,36,6.10
2010,05,08,03,37,6.00
2010,05,08,03,38,6.00
2010,05,08,03,39,6.00
2010,05,08,03,40,6.00
2010,05,08,03,41,5.90
2010,05,08,03,42,5.90
2010,05,08,03,43,5.90
2010,05,08,03,44,5.90
2010,05,08,03,45,5.80
2010,05,08,03,46,5.80
2010,05,08,03,47,5.80
2010,05,08,03,48,5.70
2010,05,08,03,49,5.70
2010,05,08,03,50,5.70
2010,05,08,03,51,5.70
2010,05,08,03,52,5.70
2010,05,08,03,53,5.70
2010,05,08,03,54,5.70
2010,05,08,03,55,5.60
2010,05,08,03,56,5.60
2010,05,08,03,57,5.60
2010,05,08,03,58,5.70
2010,05,08,03,59,5.60
2010,05,08,04,00,5.60
2010,05,08,04,01,5.60
2010,05,08,04,02,5.60
2010,05,08,04,03,5.60
2010,05,08,04,04,5.60
2010,05,08,04,05,5.60
2010,05,08,04,06,5.60
2010,05,08,04,07,5.60
2010,05,08,04,08,5.60
2010,05,08,04,09,5.60
2010,05,08,04,10,5.60
2010,05,08,04,11,5.60
2010,05,08,04,12,5.60
2010,05,08,04,13,5.50
2010,05,08,04,14,5.50
2010,05,08,04,15,5.50
2010,05,08,04,16,5.50
2010,05,08,04,17,5.50
2010,05,08,04,18,5.50
2010,05,08,04,19,5.50
2010,05,08,04,20,5.50
2010,05,08,04,21,5.50
2010,05,08,04,22,5.40
2010,05,08,04,23,5.40
2010,05,08,04,24,5.40
2010,05,08,04,25,5.40
2010,05,08,04,26,5.30
2010,05,08,04,27,5.30
2010,05,08,04,28,5.30
2010,05,08,04,29,5.40
2010,05,08,04,30,5.40
2010,05,08,04,31,5.40
2010,05,08,04,32,5.30
2010,05,08,04,33,5.30
2010,05,08,04,34,5.30
2010,05,08,04,35,5.30
2010,05,08,04,36,5.30
2010,05,08,04,37,5.30
2010,05,08,04,38,5.30
2010,05,08,04,39,5.30
2010,05,08,04,40,5.30
2010,05,08,04,41,5.30
2010,05,08,04,42,5.30
2010,05,08,04,43,5.30
2010,05,08,04,44,5.30
2010,05,08,04,45,5.40
2010,05,08,04,46,5.30
2010,05,08,04,47,5.30
2010,05,08,04,48,5.30
2010,05,08,04,49,5.30
2010,05,08,04,50,5.30
2010,05,08,04,51,5.30
2010,05,08,04,52,5.30
2010,05,08,04,53,5.40
2010,05,08,04,54,5.40
2010,05,08,04,55,5.40
2010,05,08,04,56,5.30
2010,05,08,04,57,5.30
2010,05,08,04,58,5.30
2010,05,08,04,59,5.30
2010,05,08,05,00,5.30
2010,05,08,05,01,5.30
2010,05,08,05,02,5.30
2010,05,08,05,03,5.30
2010,05,08,05,04,5.30
2010,05,08,05,05,5.30
2010,05,08,05,06,5.30
2010,05,08,05,07,5.30
2010,05,08,05,08,5.20
2010,05,08,05,09,5.20
2010,05,08,05,10,5.20
2010,05,08,05,11,5.20
2010,05,08,05,12,5.20
2010,05,08,05,13,5.10
2010,05,08,05,14,5.10
2010,05,08,05,15,5.10
2010,05,08,05,16,5.10
2010,05,08,05,17,5.10
2010,05,08,05,18,5.10
2010,05,08,05,19,5.10
2010,05,08,05,20,5.10
2010,05,08,05,21,5.10
2010,05,08,05,22,5.10
2010,05,08,05,23,5.10
2010,05,08,05,24,5.10
2010,05,08,05,25,5.10
2010,05,08,05,26,5.10
2010,05,08,05,27,5.10
2010,05,08,05,28,5.10
2010,05,08,05,29,5.10
2010,05,08,05,30,5.10
2010,05,08,05,31,5.10
2010,05,08,05,32,5.10
2010,05,08,05,33,5.20
2010,05,08,05,34,5.20
2010,05,08,05,35,5.10
2010,05,08,05,36,5.10
2010,05,08,05,37,5.10
2010,05,08,05,38,5.10
2010,05,08,05,39,5.10
2010,05,08,05,40,5.10
2010,05,08,05,41,5.10
2010,05,08,05,42,5.10
2010,05,08,05,43,5.10
2010,05,08,05,44,5.10
2010,05,08,05,45,5.10
2010,05,08,05,46,5.10
2010,05,08,05,47,5.10
2010,05,08,05,48,5.10
2010,05,08,05,49,5.20
2010,05,08,05,50,5.20
2010,05,08,05,51,5.20
2010,05,08,05,52,5.20
2010,05,08,05,53,5.20
2010,05,08,05,54,5.20
2010,05,08,05,55,5.30
2010,05,08,05,56,5.30
2010,05,08,05,57,5.30
2010,05,08,05,58,5.30
2010,05,08,05,59,5.30
2010,05,08,06,00,5.30
2010,05,08,06,01,5.30
2010,05,08,06,02,5.30
2010,05,08,06,03,5.30
2010,05,08,06,04,5.30
2010,05,08,06,05,5.30
2010,05,08,06,06,5.30
2010,05,08,06,07,5.30
2010,05,08,06,08,5.30
2010,05,08,06,09,5.30
2010,05,08,06,10,5.30
2010,05,08,06,11,5.30
2010,05,08,06,12,5.30
2010,05,08,06,13,5.30
2010,05,08,06,14,5.30
2010,05,08,06,15,5.30
2010,05,08,06,16,5.30
2010,05,08,06,17,5.30
2010,05,08,06,18,5.40
2010,05,08,06,19,5.40
2010,05,08,06,20,5.50
2010,05,08,06,21,5.50
2010,05,08,06,22,5.50
2010,05,08,06,23,5.60
2010,05,08,06,24,5.60
2010,05,08,06,25,5.60
2010,05,08,06,26,5.70
2010,05,08,06,27,5.70
2010,05,08,06,28,5.70
2010,05,08,06,29,5.80
2010,05,08,06,30,5.90
2010,05,08,06,31,5.90
2010,05,08,06,32,6.00
2010,05,08,06,33,6.00
2010,05,08,06,34,6.00
2010,05,08,06,35,6.00
2010,05,08,06,36,6.00
2010,05,08,06,37,6.10
2010,05,08,06,38,6.10
2010,05,08,06,39,6.10
2010,05,08,06,40,6.10
2010,05,08,06,41,6.10
2010,05,08,06,42,6.10
2010,05,08,06,43,6.10
2010,05,08,06,44,6.10
2010,05,08,06,45,6.10
2010,05,08,06,46,6.10
2010,05,08,06,47,6.20
2010,05,08,06,48,6.20
2010,05,08,06,49,6.20
2010,05,08,06,50,6.20
2010,05,08,06,51,6.20
2010,05,08,06,52,6.20
2010,05,08,06,53,6.20
2010,05,08,06,54,6.30
2010,05,08,06,55,6.30
2010,05,08,06,56,6.40
2010,05,08,06,57,6.40
2010,05,08,06,58,6.40
2010,05,08,06,59,6.60
2010,05,08,07,00,6.60
2010,05,08,07,01,6.70
2010,05,08,07,02,6.70
2010,05,08,07,03,6.80
2010,05,08,07,04,6.90
2010,05,08,07,05,6.90
2010,05,08,07,06,7.00
2010,05,08,07,07,7.10
2010,05,08,07,08,7.20
2010,05,08,07,09,7.30
2010,05,08,07,10,7.40
2010,05,08,07,11,7.50
2010,05,08,07,12,7.60
2010,05,08,07,13,7.80
2010,05,08,07,14,7.90
2010,05,08,07,15,8.00
2010,05,08,07,16,8.10
2010,05,08,07,17,8.20
2010,05,08,07,18,8.30
2010,05,08,07,19,8.40
2010,05,08,07,20,8.50
2010,05,08,07,21,8.60
2010,05,08,07,22,8.70
2010,05,08,07,23,8.70
2010,05,08,07,24,8.80
2010,05,08,07,25,8.90
2010,05,08,07,26,9.00
2010,05,08,07,27,9.00
2010,05,08,07,28,9.10
2010,05,08,07,29,9.10
2010,05,08,07,30,9.20
2010,05,08,07,31,9.30
2010,05,08,07,32,9.30
2010,05,08,07,33,9.30
2010,05,08,07,34,9.40
2010,05,08,07,35,9.40
2010,05,08,07,36,9.40
2010,05,08,07,37,9.40
2010,05,08,07,38,9.40
2010,05,08,07,39,9.50
2010,05,08,07,40,9.50
2010,05,08,07,41,9.50
2010,05,08,07,42,9.50
2010,05,08,07,43,9.60
2010,05,08,07,44,9.70
2010,05,08,07,45,9.70
2010,05,08,07,46,9.80
2010,05,08,07,47,9.80
2010,05,08,07,48,9.90
2010,05,08,07,49,10.00
2010,05,08,07,50,10.10
2010,05,08,07,51,10.10
2010,05,08,07,52,10.20
2010,05,08,07,53,10.30
2010,05,08,07,54,10.30
2010,05,08,07,55,10.30
2010,05,08,07,56,10.40
2010,05,08,07,57,10.40
2010,05,08,07,58,10.40
2010,05,08,07,59,10.40
2010,05,08,08,00,10.50
2010,05,08,08,01,10.60
2010,05,08,08,02,10.60
2010,05,08,08,03,10.60
2010,05,08,08,04,10.60
2010,05,08,08,05,10.70
2010,05,08,08,06,10.70
2010,05,08,08,07,10.80
2010,05,08,08,08,10.80
2010,05,08,08,09,10.80
2010,05,08,08,10,10.90
2010,05,08,08,11,10.90
2010,05,08,08,12,10.90
2010,05,08,08,13,11.00
2010,05,08,08,14,11.10
2010,05,08,08,15,11.10
2010,05,08,08,16,11.20
2010,05,08,08,17,11.20
2010,05,08,08,18,11.20
2010,05,08,08,19,11.10
2010,05,08,08,20,11.10
2010,05,08,08,21,11.10
2010,05,08,08,22,11.10
2010,05,08,08,23,11.20
2010,05,08,08,24,11.20
2010,05,08,08,25,11.30
2010,05,08,08,26,11.30
2010,05,08,08,27,11.40
2010,05,08,08,28,11.40
2010,05,08,08,29,11.40
2010,05,08,08,30,11.40
2010,05,08,08,31,11.40
2010,05,08,08,32,11.40
2010,05,08,08,33,11.40
2010,05,08,08,34,11.40
2010,05,08,08,35,11.40
2010,05,08,08,36,11.40
2010,05,08,08,37,11.40
2010,05,08,08,38,11.60
2010,05,08,08,39,11.60
2010,05,08,08,40,11.50
2010,05,08,08,41,11.60
2010,05,08,08,42,11.60
2010,05,08,08,43,11.60
2010,05,08,08,44,11.60
2010,05,08,08,45,11.60
2010,05,08,08,46,11.60
2010,05,08,08,47,11.60
2010,05,08,08,48,11.60
2010,05,08,08,49,11.50
2010,05,08,08,50,11.40
2010,05,08,08,51,11.40
2010,05,08,08,52,11.60
2010,05,08,08,53,11.60
2010,05,08,08,54,11.60
2010,05,08,08,55,11.70
2010,05,08,08,56,11.80
2010,05,08,08,57,11.90
2010,05,08,08,58,12.00
2010,05,08,08,59,12.00
2010,05,08,09,00,12.00
2010,05,08,09,01,12.00
2010,05,08,09,02,12.00
2010,05,08,09,03,12.00
2010,05,08,09,04,12.00
2010,05,08,09,05,12.00
2010,05,08,09,06,12.00
2010,05,08,09,07,12.00
2010,05,08,09,08,12.10
2010,05,08,09,09,12.20
2010,05,08,09,10,12.20
2010,05,08,09,11,12.10
2010,05,08,09,12,12.10
2010,05,08,09,13,12.10
2010,05,08,09,14,12.20
2010,05,08,09,15,12.30
2010,05,08,09,16,12.30
2010,05,08,09,17,12.30
2010,05,08,09,18,12.40
2010,05,08,09,19,12.40
2010,05,08,09,20,12.50
2010,05,08,09,21,12.50
2010,05,08,09,22,12.50
2010,05,08,09,23,12.50
2010,05,08,09,24,12.50
2010,05,08,09,25,12.60
2010,05,08,09,26,12.50
2010,05,08,09,27,12.50
2010,05,08,09,28,12.50
2010,05,08,09,29,12.40
2010,05,08,09,30,12.40
2010,05,08,09,31,12.40
2010,05,08,09,32,12.40
2010,05,08,09,33,12.50
2010,05,08,09,34,12.50
2010,05,08,09,35,12.50
2010,05,08,09,36,12.50
2010,05,08,09,37,12.60
2010,05,08,09,38,12.70
2010,05,08,09,39,12.70
2010,05,08,09,40,12.70
2010,05,08,09,41,12.80
2010,05,08,09,42,12.90
2010,05,08,09,43,12.90
2010,05,08,09,44,12.90
2010,05,08,09,45,13.00
2010,05,08,09,46,13.00
2010,05,08,09,47,13.10
2010,05,08,09,48,13.10
2010,05,08,09,49,13.00
2010,05,08,09,50,13.00
2010,05,08,09,51,13.00
2010,05,08,09,52,13.10
2010,05,08,09,53,13.20
2010,05,08,09,54,13.20
2010,05,08,09,55,13.20
2010,05,08,09,56,13.30
2010,05,08,09,57,13.30
2010,05,08,09,58,13.40
2010,05,08,09,59,13.40
2010,05,08,10,00,13.50
2010,05,08,10,01,13.50
2010,05,08,10,02,13.60
2010,05,08,10,03,13.70
2010,05,08,10,04,13.70
2010,05,08,10,05,13.70
2010,05,08,10,06,13.70
2010,05,08,10,07,13.60
2010,05,08,10,08,13.50
2010,05,08,10,09,13.50
2010,05,08,10,10,13.50
2010,05,08,10,11,13.40
2010,05,08,10,12,13.40
2010,05,08,10,13,13.40
2010,05,08,10,14,13.40
2010,05,08,10,15,13.40
2010,05,08,10,16,13.40
2010,05,08,10,17,13.40
2010,05,08,10,18,13.40
2010,05,08,10,19,13.40
2010,05,08,10,20,13.40
2010,05,08,12,19,14.30
2010,05,08,12,20,14.50
2010,05,08,12,21,14.60
2010,05,08,12,22,14.70
2010,05,08,12,23,14.70
2010,05,08,12,24,14.80
2010,05,08,12,25,14.80
2010,05,08,12,26,14.80
2010,05,08,12,27,14.70
2010,05,08,12,28,14.60
2010,05,08,12,29,14.60
2010,05,08,12,30,14.60
2010,05,08,12,31,14.50
2010,05,08,12,32,14.40
2010,05,08,12,33,14.50
2010,05,08,12,34,14.60
2010,05,08,12,35,14.60
2010,05,08,12,36,14.70
2010,05,08,12,37,14.80
2010,05,08,12,38,14.80
2010,05,08,12,39,14.80
2010,05,08,12,40,14.80
2010,05,08,12,41,14.70
2010,05,08,12,42,14.70
2010,05,08,12,43,14.80
2010,05,08,12,44,14.80
2010,05,08,12,45,14.90
2010,05,08,12,46,14.90
2010,05,08,12,47,14.80
2010,05,08,12,48,14.60
2010,05,08,12,49,14.60
2010,05,08,12,50,14.60
2010,05,08,12,51,14.60
2010,05,08,12,52,14.60
2010,05,08,12,53,14.70
2010,05,08,12,54,14.80
2010,05,08,12,55,14.90
2010,05,08,12,56,15.00
2010,05,08,12,57,15.10
2010,05,08,12,58,15.20
2010,05,08,12,59,15.10
2010,05,08,13,00,15.10
2010,05,08,13,01,15.00
2010,05,08,13,02,14.90
2010,05,08,13,03,14.80
2010,05,08,13,04,14.80
2010,05,08,13,05,14.90
2010,05,08,13,06,15.00
2010,05,08,13,07,15.00
2010,05,08,13,08,14.80
2010,05,08,13,09,14.90
2010,05,08,13,10,14.90
2010,05,08,13,11,14.90
2010,05,08,13,12,15.00
2010,05,08,13,13,15.10
2010,05,08,13,14,15.30
2010,05,08,13,15,15.40
2010,05,08,13,16,15.40
2010,05,08,13,17,15.50
2010,05,08,13,18,15.60
2010,05,08,13,19,15.70
2010,05,08,13,20,15.70
2010,05,08,13,21,15.60
2010,05,08,13,22,15.60
2010,05,08,13,23,15.60
2010,05,08,13,24,15.60
2010,05,08,13,25,15.70
2010,05,08,13,26,15.70
2010,05,08,13,27,15.80
2010,05,08,13,28,16.00
2010,05,08,13,29,16.10
2010,05,08,13,30,16.00
2010,05,08,13,31,15.90
2010,05,08,13,32,15.90
2010,05,08,13,33,15.80
2010,05,08,13,34,15.80
2010,05,08,13,35,15.80
2010,05,08,13,36,15.70
2010,05,08,13,37,15.60
2010,05,08,13,38,15.60
2010,05,08,13,39,15.70
2010,05,08,13,40,15.80
2010,05,08,13,41,15.80
2010,05,08,13,42,15.80
2010,05,08,13,43,16.00
2010,05,08,13,44,16.10
2010,05,08,13,45,16.20
2010,05,08,13,46,16.30
2010,05,08,13,47,16.40
2010,05,08,13,48,16.40
2010,05,08,13,49,16.30
2010,05,08,13,50,16.20
2010,05,08,13,51,16.30
2010,05,08,13,52,16.40
2010,05,08,13,53,16.40
2010,05,08,13,54,16.40
2010,05,08,13,55,16.30
2010,05,08,13,56,16.30
2010,05,08,13,57,16.30
2010,05,08,13,58,16.30
2010,05,08,13,59,16.20
2010,05,08,14,00,16.10
2010,05,08,14,01,16.10
2010,05,08,14,02,16.10
2010,05,08,14,03,16.10
2010,05,08,14,04,16.20
2010,05,08,14,05,16.20
2010,05,08,14,06,16.10
2010,05,08,14,07,16.00
2010,05,08,14,08,15.90
2010,05,08,14,09,15.80
2010,05,08,14,10,15.80
2010,05,08,14,11,15.80
2010,05,08,14,12,15.90
2010,05,08,14,13,16.10
2010,05,08,14,14,16.20
2010,05,08,14,15,16.40
2010,05,08,14,16,16.50
2010,05,08,14,17,16.70
2010,05,08,14,18,16.70
2010,05,08,14,19,16.70
2010,05,08,14,20,16.70
2010,05,08,14,21,16.70
2010,05,08,14,22,16.70
2010,05,08,14,23,16.70
2010,05,08,14,24,16.70
2010,05,08,14,25,16.70
2010,05,08,14,26,16.70
2010,05,08,14,27,16.60
2010,05,08,14,28,16.60
2010,05,08,14,29,16.60
2010,05,08,14,30,16.60
2010,05,08,14,31,16.70
2010,05,08,14,32,16.60
2010,05,08,14,33,16.50
2010,05,08,14,34,16.40
2010,05,08,14,35,16.30
2010,05,08,14,36,16.20
2010,05,08,14,37,16.20
2010,05,08,14,38,16.30
2010,05,08,14,39,16.30
2010,05,08,14,40,16.40
2010,05,08,14,41,16.50
2010,05,08,14,42,16.60
2010,05,08,14,43,16.50
2010,05,08,14,44,16.40
2010,05,08,14,45,16.30
2010,05,08,14,46,16.30
2010,05,08,14,47,16.30
2010,05,08,14,48,16.30
2010,05,08,14,49,16.30
2010,05,08,14,50,16.30
2010,05,08,14,51,16.30
2010,05,08,14,52,16.40
2010,05,08,14,53,16.50
2010,05,08,14,54,16.60
2010,05,08,14,55,16.60
2010,05,08,14,56,16.70
2010,05,08,14,57,16.80
2010,05,08,14,58,16.90
2010,05,08,14,59,16.90
2010,05,08,15,00,17.00
2010,05,08,15,01,17.10
2010,05,08,15,02,17.20
2010,05,08,15,03,17.30
2010,05,08,15,04,17.40
2010,05,08,15,05,17.40
2010,05,08,15,06,17.40
2010,05,08,15,07,17.40
2010,05,08,15,08,17.40
2010,05,08,15,09,17.50
2010,05,08,15,10,17.60
2010,05,08,15,11,17.70
2010,05,08,15,12,17.80
2010,05,08,15,13,17.90
2010,05,08,15,14,18.00
2010,05,08,15,15,18.10
2010,05,08,15,16,18.20
2010,05,08,15,17,18.10
2010,05,08,15,18,18.10
2010,05,08,15,19,18.00
2010,05,08,15,20,17.90
2010,05,08,15,21,17.90
2010,05,08,15,22,17.90
2010,05,08,15,23,18.00
2010,05,08,15,24,18.10
2010,05,08,15,25,18.10
2010,05,08,15,26,18.20
2010,05,08,15,27,18.20
2010,05,08,15,28,18.20
2010,05,08,15,29,18.20
2010,05,08,15,30,18.00
2010,05,08,15,31,17.80
2010,05,08,15,32,17.60
2010,05,08,15,33,17.40
2010,05,08,15,34,17.30
2010,05,08,15,35,17.30
2010,05,08,15,36,17.40
2010,05,08,15,37,17.50
2010,05,08,15,38,17.60
2010,05,08,15,39,17.80
2010,05,08,15,40,18.00
2010,05,08,15,41,18.20
2010,05,08,15,42,18.40
2010,05,08,15,43,18.50
2010,05,08,15,44,18.50
2010,05,08,15,45,18.30
2010,05,08,15,46,18.30
2010,05,08,15,47,18.30
2010,05,08,15,48,18.30
2010,05,08,15,49,18.20
2010,05,08,15,50,18.20
2010,05,08,15,51,18.20
2010,05,08,15,52,18.20
2010,05,08,15,53,18.10
2010,05,08,15,54,18.00
2010,05,08,15,55,17.90
2010,05,08,15,56,18.00
2010,05,08,15,57,18.10
2010,05,08,15,58,18.20
2010,05,08,15,59,18.20
2010,05,08,16,00,18.20
2010,05,08,16,01,18.30
2010,05,08,16,02,18.40
2010,05,08,16,03,18.50
2010,05,08,16,04,18.60
2010,05,08,16,05,18.70
2010,05,08,16,06,18.70
2010,05,08,16,07,18.80
2010,05,08,16,08,18.90
2010,05,08,16,09,18.80
2010,05,08,16,10,18.70
2010,05,08,16,11,18.60
2010,05,08,16,12,18.60
2010,05,08,16,13,18.70
2010,05,08,16,14,18.70
2010,05,08,16,15,18.50
2010,05,08,16,16,18.40
2010,05,08,16,17,18.10
2010,05,08,16,18,18.00
2010,05,08,16,19,17.90
2010,05,08,16,20,17.70
2010,05,08,16,21,17.60
2010,05,08,16,22,17.60
2010,05,08,16,23,17.70
2010,05,08,16,24,17.60
2010,05,08,16,25,17.50
2010,05,08,16,26,17.50
2010,05,08,16,27,17.40
2010,05,08,16,28,17.40
2010,05,08,16,29,17.50
2010,05,08,16,30,17.30
2010,05,08,16,31,17.20
2010,05,08,16,32,17.20
2010,05,08,16,33,17.30
2010,05,08,16,34,17.30
2010,05,08,16,35,17.20
2010,05,08,16,36,17.10
2010,05,08,16,37,17.00
2010,05,08,16,38,16.80
2010,05,08,16,39,16.70
2010,05,08,16,40,16.70
2010,05,08,16,41,16.70
2010,05,08,16,42,16.70
2010,05,08,16,43,16.60
2010,05,08,16,44,16.40
2010,05,08,16,45,16.20
2010,05,08,16,46,16.00
2010,05,08,16,47,15.90
2010,05,08,16,48,15.80
2010,05,08,16,49,15.70
2010,05,08,16,50,15.60
2010,05,08,16,51,15.50
2010,05,08,16,52,15.30
2010,05,08,16,53,15.20
2010,05,08,16,54,15.10
2010,05,08,16,55,15.00
2010,05,08,16,56,14.90
2010,05,08,16,57,14.90
2010,05,08,16,58,14.90
2010,05,08,16,59,15.00
2010,05,08,17,00,15.00
2010,05,08,17,01,15.00
2010,05,08,17,02,15.00
2010,05,08,17,03,15.00
2010,05,08,17,04,15.00
2010,05,08,17,05,14.90
2010,05,08,17,06,14.80
2010,05,08,17,07,14.80
2010,05,08,17,08,14.80
2010,05,08,17,09,14.80
2010,05,08,17,10,14.80
2010,05,08,17,11,14.80
2010,05,08,17,12,14.80
2010,05,08,17,13,14.90
2010,05,08,17,14,15.00
2010,05,08,17,15,15.10
2010,05,08,17,16,15.20
2010,05,08,17,17,15.30
2010,05,08,17,18,15.30
2010,05,08,17,19,15.40
2010,05,08,17,20,15.40
2010,05,08,17,21,15.40
2010,05,08,17,22,15.50
2010,05,08,17,23,15.50
2010,05,08,17,24,15.50
2010,05,08,17,25,15.40
2010,05,08,17,26,15.40
2010,05,08,17,27,15.40
2010,05,08,17,28,15.40
2010,05,08,17,29,15.40
2010,05,08,17,30,15.40
2010,05,08,17,31,15.50
2010,05,08,17,32,15.50
2010,05,08,17,33,15.60
2010,05,08,17,34,15.70
2010,05,08,17,35,15.80
2010,05,08,17,36,15.90
2010,05,08,17,37,16.10
2010,05,08,17,38,16.20
2010,05,08,17,39,16.30
2010,05,08,17,40,16.40
2010,05,08,17,41,16.50
2010,05,08,17,42,16.60
2010,05,08,17,43,16.70
2010,05,08,17,44,16.80
2010,05,08,17,45,16.80
2010,05,08,17,46,16.80
2010,05,08,17,47,16.90
2010,05,08,17,48,16.90
2010,05,08,17,49,17.00
2010,05,08,17,50,17.00
2010,05,08,17,51,17.10
2010,05,08,17,52,17.10
2010,05,08,17,53,17.10
2010,05,08,17,54,17.10
2010,05,08,17,55,17.20
2010,05,08,17,56,17.20
2010,05,08,17,57,17.20
2010,05,08,17,58,17.20
2010,05,08,17,59,17.30
2010,05,08,18,00,17.30
2010,05,08,18,01,17.30
2010,05,08,18,02,17.20
2010,05,08,18,03,17.20
2010,05,08,18,04,17.20
2010,05,08,18,05,17.20
2010,05,08,18,06,17.10
2010,05,08,18,07,17.00
2010,05,08,18,08,17.00
2010,05,08,18,09,16.90
2010,05,08,18,10,16.80
2010,05,08,18,11,16.70
2010,05,08,18,12,16.70
2010,05,08,18,13,16.70
2010,05,08,18,14,16.70
2010,05,08,18,15,16.70
2010,05,08,18,16,16.70
2010,05,08,18,17,16.70
2010,05,08,18,18,16.70
2010,05,08,18,19,16.70
2010,05,08,18,20,16.70
2010,05,08,18,21,16.70
2010,05,08,18,22,16.70
2010,05,08,18,23,16.70
2010,05,08,18,24,16.70
2010,05,08,18,25,16.70
2010,05,08,18,26,16.60
2010,05,08,18,27,16.60
2010,05,08,18,28,16.60
2010,05,08,18,29,16.70
2010,05,08,18,30,16.70
2010,05,08,18,31,16.70
2010,05,08,18,32,16.70
2010,05,08,18,33,16.70
2010,05,08,18,34,16.70
2010,05,08,18,35,16.70
2010,05,08,18,36,16.70
2010,05,08,18,37,16.70
2010,05,08,18,38,16.80
2010,05,08,18,39,16.80
2010,05,08,18,40,16.90
2010,05,08,18,41,16.90
2010,05,08,18,42,16.80
2010,05,08,18,43,16.80
2010,05,08,18,44,16.80
2010,05,08,18,45,16.70
2010,05,08,18,46,16.70
2010,05,08,18,47,16.70
2010,05,08,18,48,16.70
2010,05,08,18,49,16.70
2010,05,08,18,50,16.70
2010,05,08,18,51,16.80
2010,05,08,18,52,16.80
2010,05,08,18,53,16.90
2010,05,08,18,54,16.90
2010,05,08,18,55,16.90
2010,05,08,18,56,16.70
2010,05,08,18,57,16.30
2010,05,08,18,58,16.00
2010,05,08,18,59,15.60
2010,05,08,19,00,15.40
2010,05,08,19,01,15.30
2010,05,08,19,02,15.10
2010,05,08,19,03,15.10
2010,05,08,19,04,15.00
2010,05,08,19,05,14.90
2010,05,08,19,06,14.80
2010,05,08,19,07,14.70
2010,05,08,19,08,14.60
2010,05,08,19,09,14.50
2010,05,08,19,10,14.40
2010,05,08,19,11,14.30
2010,05,08,19,12,14.40
2010,05,08,19,13,14.50
2010,05,08,19,14,14.50
2010,05,08,19,15,14.60
2010,05,08,19,16,14.60
2010,05,08,19,17,14.70
2010,05,08,19,18,14.70
2010,05,08,19,19,14.80
2010,05,08,19,20,14.80
2010,05,08,19,21,14.80
2010,05,08,19,22,14.70
2010,05,08,19,23,14.70
2010,05,08,19,24,14.80
2010,05,08,19,25,14.80
2010,05,08,19,26,14.80
2010,05,08,19,27,14.80
2010,05,08,19,28,14.80
2010,05,08,19,29,14.80
2010,05,08,19,30,14.80
2010,05,08,19,31,14.80
2010,05,08,19,32,14.80
2010,05,08,19,33,14.80
2010,05,08,19,34,14.80
2010,05,08,19,35,14.80
2010,05,08,19,36,14.80
2010,05,08,19,37,14.80